Weather History for Milton, FL

Change the Weather History Date:

Wednesday, December 19, 2012

  Actual Average (KNSE) Record (KNSE)
Temperature  
Mean Temperature 56 °F -  
Max Temperature 72 °F 58 °F 78 °F (2006)
Min Temperature 41 °F 40 °F 24 °F (1996)
Degree Days  
Heating Degree Days 8    
Growing Degree Days 6 (Base 50)    
Moisture  
Dew Point 47 °F    
Average Humidity 78    
Maximum Humidity 93    
Minimum Humidity 47    
Precipitation  
Precipitation 0.00 in - - ()
Sea Level Pressure  
Sea Level Pressure 30.00 in    
Wind  
Wind Speed 3 mph (SE)    
Max Wind Speed 12 mph    
Max Gust Speed 17 mph    
Visibility 9 miles    
Events      
Averages and records for this station are not official NWS values.
T = Trace of Precipitation, MM = Missing Value Source: NWS Daily Summary

Daily Weather History Graph

Daily Weather History Graph

Search for Another Location

Airport:

Trip Planner

Search our weather history database for the weather conditions in past years. The results will help you decide how hot, cold, wet, or windy it might be!

Date:

Astronomy

Dec. 19, 2012 Rise Set
Actual Time 6:40 AM CST 4:50 PM CST
Civil Twilight 6:14 AM CST 5:16 PM CST
Nautical Twilight 5:43 AM CST 5:47 PM CST
Astronomical Twilight 5:14 AM CST 6:16 PM CST
Moon 11:15 AM CST (12/19) 11:49 PM CST (12/19)
Length of Visible Light 11h 02m
Length of Day
10h 09m
Waxing Crescent, 45% of the Moon is Illuminated
Dec 19
Waxing Crescent
Dec 19
First Quarter
Dec 28
Full
Jan 4
Last Quarter
Jan 11
New

Hourly Weather History & Observations

Time (CST) Temp. Windchill Dew Point Humidity Pressure Visibility Wind Dir Wind Speed Gust Speed Precip Events Conditions
12:40 AM 42.8 °F - 39.2 °F 87% 30.04 in 1.5 mi Calm Calm - N/A   Clear
12:50 AM 42.8 °F - 39.2 °F 87% 30.04 in 4.0 mi Calm Calm - N/A   Clear
12:56 AM 43.0 °F - 39.9 °F 89% 30.00 in 3.0 mi Calm Calm - N/A   Clear
12:58 AM 44.6 °F - 39.2 °F 81% 30.03 in 1.8 mi Calm Calm - N/A   Clear
1:26 AM 42.8 °F - 41.0 °F 93% 30.04 in 2.0 mi Calm Calm - N/A   Clear
1:38 AM 42.8 °F - 39.2 °F 87% 30.04 in 8.0 mi Calm Calm - N/A   Clear
1:56 AM 44.1 °F - 41.0 °F 89% 30.00 in 10.0 mi Calm Calm - N/A   Clear
2:56 AM 42.1 °F - 39.9 °F 92% 29.99 in 10.0 mi Calm Calm - N/A   Clear
3:56 AM 41.0 °F - 37.9 °F 89% 29.99 in 9.0 mi Calm Calm - N/A   Clear
4:56 AM 43.0 °F 41.3 °F 39.9 °F 89% 30.01 in 10.0 mi ENE 3.5 mph - N/A   Clear
5:56 AM 42.1 °F 39.2 °F 39.0 °F 89% 30.02 in 10.0 mi ENE 4.6 mph - N/A   Clear
6:56 AM 42.1 °F - 39.9 °F 92% 30.04 in 10.0 mi Calm Calm - N/A   Clear
7:56 AM 50.0 °F - 46.0 °F 86% 30.05 in 10.0 mi Calm Calm - N/A   Clear
8:56 AM 55.9 °F - 50.0 °F 80% 30.06 in 10.0 mi Calm Calm - N/A   Clear
9:56 AM 63.0 °F - 52.0 °F 67% 30.07 in 10.0 mi Calm Calm - N/A   Clear
10:56 AM 69.1 °F - 51.1 °F 53% 30.05 in 10.0 mi SSE 9.2 mph - N/A   Clear
11:56 AM 71.1 °F - 50.0 °F 47% 30.03 in 10.0 mi South 11.5 mph 17.3 mph N/A   Clear
12:56 PM 72.0 °F - 51.1 °F 48% 30.00 in 10.0 mi SSW 5.8 mph - N/A   Clear
1:56 PM 72.0 °F - 52.0 °F 49% 29.98 in 10.0 mi South 10.4 mph - N/A   Clear
2:56 PM 71.1 °F - 51.1 °F 49% 29.98 in 10.0 mi South 10.4 mph - N/A   Clear
3:56 PM 69.1 °F - 51.1 °F 53% 29.98 in 10.0 mi South 11.5 mph - N/A   Clear
4:56 PM 63.0 °F - 52.0 °F 67% 29.98 in 10.0 mi SE 8.1 mph - N/A   Clear
5:56 PM 60.1 °F - 52.0 °F 75% 29.98 in 10.0 mi ESE 6.9 mph - N/A   Clear
6:56 PM 60.1 °F - 52.0 °F 75% 29.97 in 10.0 mi ESE 8.1 mph - N/A   Clear
7:56 PM 57.0 °F - 53.1 °F 87% 29.97 in 10.0 mi SE 5.8 mph - N/A   Clear
8:56 PM 59.0 °F - 54.0 °F 83% 29.97 in 10.0 mi SE 3.5 mph - N/A   Mostly Cloudy
9:20 PM 60.8 °F - 55.4 °F 82% 30.01 in 10.0 mi ESE 5.8 mph - N/A   Overcast
9:56 PM 59.0 °F - 55.0 °F 87% 29.96 in 10.0 mi ESE 5.8 mph - N/A   Mostly Cloudy
10:38 PM 60.8 °F - 55.4 °F 82% 29.99 in 10.0 mi ESE 4.6 mph - N/A   Mostly Cloudy
10:56 PM 60.1 °F - 55.9 °F 86% 29.94 in 10.0 mi ESE 8.1 mph - N/A   Mostly Cloudy
11:56 PM 62.1 °F - 57.9 °F 86% 29.93 in 10.0 mi ESE 5.8 mph - N/A   Overcast